Wind_Speed
4 5 6 8 14 16 13 11 8 8 6 7 8 9 13 14 16 19 21 23 24 25 28 30 30 29 30 30 28 24 24 19
2 1 7 11 12 12 13 11 8 8 7 10 11 12 17 20 22 22 22 22 24 27 30 33 35 34 38 37 33 28 23 23
4 5 7 10 11 11 8 3 5 9 11 12 12 14 15 18 19 24 26 27 28 26 25 27 29 29 30 36 34 28 22 22
5 5 6 5 4 4 6 7 9 11 12 12 13 13 14 14 21 25 28 28 25 27 28 26 26 26 28 31 33 33 32 25
7 8 9 8 6 7 12 17 16 17 16 16 17 12 13 16 19 21 29 30 29 29 30 29 27 25 26 29 29 31 30 31
9 11 11 15 18 18 16 15 17 19 19 20 17 15 14 17 21 27 31 32 29 28 26 25 25 24 24 23 24 24 26 28
8 11 12 13 15 15 14 13 15 18 19 17 16 17 20 23 31 34 33 32 31 27 23 20 18 15 11 6 4 5 1 3
9 10 10 12 15 16 16 16 16 18 17 17 21 24 28 31 33 29 28 26 22 20 14 8 5 9 13 13 13 13 14 13
5 4 4 7 10 13 15 15 14 18 20 19 19 23 28 29 26 29 28 23 15 7 4 4 5 5 4 5 7 7 10 9
2 3 3 5 10 15 21 23 21 18 19 17 18 22 26 27 30 29 23 15 5 1 2 4 4 5 7 8 8 8 10 7
10 12 11 8 13 15 13 11 13 15 15 15 20 24 24 25 25 21 13 2 3 7 6 6 9 10 10 13 13 8 4 2
9 14 14 11 9 12 13 12 15 16 14 20 23 22 21 20 14 10 5 6 6 5 7 9 12 12 10 11 8 7 6 4
11 14 12 8 8 13 14 13 14 13 19 20 17 15 16 12 7 6 7 7 6 6 9 13 15 16 14 11 7 6 8 9
11 12 10 9 13 14 13 14 12 17 18 15 14 14 14 9 7 8 11 11 10 11 13 14 16 16 14 12 11 11 11 10
8 8 9 11 11 11 13 12 14 15 12 9 10 10 10 10 10 11 13 13 14 14 13 16 17 17 15 14 15 12 9 8
10 9 11 11 13 13 12 12 13 11 9 9 9 7 8 12 12 14 15 15 16 15 14 14 15 16 12 12 9 7 9 12
7 7 9 11 12 12 14 13 8 7 3 5 7 8 10 13 14 15 15 15 16 16 16 17 17 13 12 7 8 12 15 17
8 8 11 12 14 14 13 10 6 4 3 7 10 11 12 12 13 16 17 15 15 15 15 14 12 10 10 12 15 17 19 20
11 14 14 15 12 16 13 4 5 6 6 9 11 11 11 13 15 14 14 14 15 15 13 11 13 14 17 18 18 19 19 20
Wind_Direction
311 297 227 205 191 194 199 203 227 240 250 276 298 324 323 316 312 304 297 290 289 281 280 281 280 272 268 264 258 257 253 250
17 182 193 191 190 195 193 212 230 254 298 327 333 338 327 324 327 326 324 319 311 297 286 285 282 270 266 264 261 251 244 246
64 111 150 170 175 181 201 268 328 342 341 331 326 328 332 336 335 331 330 323 319 315 304 294 288 278 269 261 254 248 250 233
118 104 117 99 82 31 14 9 22 32 30 26 13 2 348 346 340 334 330 329 326 321 315 307 299 287 273 263 256 249 247 242
21 17 20 7 27 51 72 76 57 44 30 24 21 20 359 339 332 324 330 330 323 318 315 311 304 293 278 274 266 257 252 252
39 51 71 69 77 73 65 47 33 22 16 11 9 6 348 337 336 333 333 330 325 320 318 313 308 302 290 279 276 266 260 252
65 74 75 65 57 50 37 24 15 6 0 357 357 357 353 344 342 339 330 325 321 319 320 317 318 318 316 326 20 51 77 165
59 67 52 41 35 24 15 6 5 4 2 358 354 351 348 344 336 325 317 317 316 318 326 332 25 75 84 87 80 63 48 33
60 83 55 35 24 16 13 8 354 357 350 346 339 336 335 329 322 317 313 311 305 316 1 31 35 26 27 27 359 10 359 32
19 244 275 5 15 21 11 3 352 341 333 325 321 326 329 324 321 319 315 315 284 19 349 339 352 24 15 20 9 12 354 347
344 335 329 341 8 1 348 336 327 322 320 320 325 328 328 326 325 325 329 342 337 342 2 49 34 27 18 4 351 354 358 348
318 312 316 304 315 346 339 322 324 326 331 329 328 329 334 336 341 348 17 345 348 16 23 19 7 351 348 320 315 321 298 314
304 309 320 320 329 339 336 331 334 337 330 325 328 342 349 349 0 27 28 17 32 21 5 354 339 324 305 296 309 309 308 304
323 329 336 346 350 346 339 340 339 333 335 340 352 357 351 347 356 4 7 3 356 349 332 322 325 326 317 314 318 311 302 290
321 332 355 355 339 335 339 341 340 341 347 353 347 345 352 343 346 333 338 340 332 329 327 320 309 310 308 311 311 302 293 288
358 350 339 337 339 333 329 328 339 346 345 354 357 357 1 11 360 344 330 316 313 315 316 317 322 321 316 311 305 298 298 298
337 303 312 322 312 318 327 325 337 342 355 53 26 5 340 338 333 336 335 334 335 336 332 328 325 326 325 308 311 307 299 296
327 321 304 304 320 322 319 316 331 332 347 354 332 332 340 346 343 339 335 333 335 335 334 330 328 333 328 313 307 303 295 294
297 287 304 317 313 314 308 287 286 307 311 324 333 336 340 338 339 337 333 330 329 328 331 335 328 319 319 315 313 304 296 297
Height
816 816 817 819 822 826 829 831 833 834 834 834 833 833 833 833 833 831 830 829 827 825 823 820 820 819 817 816 815 815 814 812
815 815 816 819 822 825 828 830 833 833 833 833 832 831 831 831 830 829 827 825 823 821 818 815 814 812 810 810 809 808 807 807
817 817 818 820 823 826 829 832 833 834 834 833 832 831 829 828 827 825 823 820 817 814 811 808 806 804 803 802 802 802 801 800
821 822 823 824 827 830 832 833 833 832 832 832 831 829 828 827 825 822 819 816 813 810 807 804 801 799 795 794 792 791 791 791
826 827 828 829 831 832 833 834 834 833 833 831 830 831 831 828 825 821 815 811 807 805 801 798 794 791 789 786 785 784 784 782
831 832 832 833 834 833 833 834 834 833 832 830 829 828 827 825 821 815 810 805 802 798 794 790 787 784 780 778 777 777 777 776
835 836 837 836 835 834 833 834 833 831 830 829 829 826 822 820 816 811 807 802 797 795 792 788 783 779 776 775 774 774 775 775
838 839 839 837 835 834 834 832 831 830 829 828 827 825 822 818 814 810 805 799 796 793 790 787 783 779 778 779 779 779 779 781
840 840 839 838 837 836 834 832 831 827 826 824 825 824 821 817 813 807 800 796 792 790 789 789 787 784 782 779 780 779 779 781
840 839 837 836 836 833 831 830 831 830 828 825 823 821 817 812 808 802 794 791 790 790 788 787 788 784 783 782 780 778 776 779
835 834 834 834 834 833 832 831 830 828 825 824 821 817 812 808 803 798 793 791 791 791 790 789 787 786 784 783 782 780 778 777
836 835 833 832 832 831 830 828 826 824 822 820 816 812 807 803 799 795 794 794 792 791 790 789 787 786 783 783 781 779 778 775
833 832 831 830 830 829 827 825 824 822 819 815 812 809 806 803 799 795 793 792 790 790 789 787 786 783 781 780 776 775 774 773
831 830 830 831 830 828 826 824 821 819 817 815 812 810 806 803 801 799 795 793 791 787 786 785 783 779 776 775 773 772 771 770
829 830 828 827 826 823 822 820 818 816 813 809 807 806 805 802 798 799 796 793 790 786 783 781 778 775 773 771 769 768 767 766
829 831 829 826 825 823 819 817 814 812 812 810 807 804 804 802 798 797 794 791 786 782 778 776 774 772 769 767 766 765 764 763
832 830 826 824 821 819 817 814 812 811 810 807 807 804 801 799 796 794 792 789 784 780 777 774 772 769 767 765 764 763 761 759
831 824 820 819 819 818 814 812 811 810 808 806 805 803 798 796 793 791 790 787 783 779 776 773 770 768 766 764 762 761 757 754
827 820 818 816 815 813 810 810 810 809 807 805 803 800 797 794 792 790 788 785 782 777 774 772 769 767 763 761 758 755 752 748